sat.trackr.live / text

‹ back to catalog

STARLINK-30306

NORAD 57633 · 2023-122B

PAYLOAD ACTIVE UNKNOWN

§ Identity

Operator
Country
US
Launch date
2023-08-17
Launch site
AFETR
Launch vehicle
Mass (kg)
RCS (m²)

Purposes: comms

External: N2YO · Heavens-Above · Gunter

§ Orbital elements

Epoch: 2026-05-25T01:19:42.843072Z

Period
94.27 min
Inclination
43.0038°
Eccentricity
0.0001059
Mean motion
15.27574056 rev/d
Perigee alt
482.3 km
Apogee alt
483.8 km
Semi-major
6,861.2 km
B*
7.1177e-6
RAAN
21.4420°
Arg perigee
203.8170°
Mean anomaly
156.2633°
Rev number
15,388

§ Raw data

STARLINK-303061 57633U 23122B   26145.05535698 -.00000066  00000+0  71177-5 0  99932 57633  43.0038  21.4420 0001059 203.8170 156.2633 15.27574056153886

JSON: /api/v1/satellites/57633 · /tle

For live sub-satellite position, see the globe view (requires WebGL).

§ Visibility from observer

Set your observer location to see the next 7 days of passes ≥ 10°. The values pass through the URL so the page stays shareable.

No JS? Fill the form by hand. The geolocation button needs JavaScript.